TimeCDT,TemperatureF,Dew PointF,Humidity,Sea Level PressureIn,VisibilityMPH,Wind Direction,Wind SpeedMPH,Gust SpeedMPH,PrecipitationIn,Events,Conditions,WindDirDegrees,DateUTC
12:04 AM,60.8,55.4,82,29.92,2.5,West,31.1,41.4,0.01,Rain-Thunderstorm,Thunderstorms and Rain,260,2013-05-09 05:04:00
12:07 AM,55.4,53.6,94,29.91,1.2,West,28.8,41.4,0.07,Rain-Thunderstorm,Heavy Thunderstorms and Rain,260,2013-05-09 05:07:00
12:11 AM,55.4,53.6,94,29.90,0.8,West,39.1,47.2,0.18,Rain-Thunderstorm,Heavy Thunderstorms and Rain,270,2013-05-09 05:11:00
12:21 AM,55.4,53.6,94,29.91,1.2,West,27.6,43.7,0.34,Rain-Thunderstorm,Heavy Thunderstorms and Rain,260,2013-05-09 05:21:00
12:27 AM,55.4,53.6,94,29.93,1.8,West,27.6,39.1,0.42,Rain-Thunderstorm,Heavy Thunderstorms and Rain,280,2013-05-09 05:27:00
12:35 AM,55.4,53.6,94,29.95,2.5,WNW,18.4,34.5,0.52,Rain-Thunderstorm,Heavy Thunderstorms and Rain,300,2013-05-09 05:35:00
12:44 AM,55.4,53.6,94,29.94,5.0,WNW,17.3,25.3,0.57,Rain-Thunderstorm,Rain,300,2013-05-09 05:44:00
12:55 AM,55.9,53.1,90,29.91,8.0,WNW,18.4,26.5,0.59,Rain-Thunderstorm,Rain,300,2013-05-09 05:55:00
1:13 AM,55.4,53.6,94,29.93,10.0,WNW,15.0,-,0.02,Rain,Light Rain,290,2013-05-09 06:13:00
1:23 AM,55.4,53.6,94,29.93,6.0,West,10.4,-,0.04,Rain-Thunderstorm,Thunderstorms and Rain,260,2013-05-09 06:23:00
1:55 AM,55.0,54.0,96,29.88,4.0,West,6.9,-,0.20,Rain,Rain,270,2013-05-09 06:55:00
2:55 AM,55.9,54.0,93,29.81,10.0,WSW,4.6,-,0.13,Rain,Light Rain,250,2013-05-09 07:55:00
3:55 AM,57.0,53.1,87,29.85,10.0,West,11.5,-,0.01,,Overcast,260,2013-05-09 08:55:00
4:55 AM,55.9,53.1,90,29.86,10.0,West,6.9,-,0.00,,Overcast,270,2013-05-09 09:55:00
5:55 AM,55.9,53.1,90,29.86,10.0,WNW,8.1,-,N/A,,Mostly Cloudy,290,2013-05-09 10:55:00
6:55 AM,55.9,54.0,93,29.86,7.0,NW,6.9,-,N/A,,Mostly Cloudy,320,2013-05-09 11:55:00
7:34 AM,57.2,55.4,94,29.90,2.5,NNW,9.2,-,N/A,,Overcast,340,2013-05-09 12:34:00
7:51 AM,57.2,53.6,88,29.91,3.0,NNW,11.5,-,N/A,,Overcast,340,2013-05-09 12:51:00
7:55 AM,57.0,54.0,89,29.88,3.0,North,11.5,-,N/A,,Overcast,350,2013-05-09 12:55:00
8:29 AM,57.2,55.4,94,29.91,3.0,NNW,8.1,-,N/A,,Overcast,340,2013-05-09 13:29:00
8:55 AM,55.9,54.0,93,29.90,4.0,North,10.4,-,N/A,,Overcast,360,2013-05-09 13:55:00
9:08 AM,55.4,53.6,94,29.92,3.0,North,10.4,-,N/A,,Overcast,360,2013-05-09 14:08:00
9:46 AM,57.2,55.4,94,29.92,4.0,North,9.2,-,N/A,,Overcast,360,2013-05-09 14:46:00
9:55 AM,57.9,55.0,90,29.91,4.0,NNW,10.4,-,N/A,,Overcast,340,2013-05-09 14:55:00
10:55 AM,57.0,55.0,93,29.94,5.0,NNW,10.4,-,N/A,,Overcast,340,2013-05-09 15:55:00
11:47 AM,59.0,55.4,88,29.97,7.0,North,9.2,-,N/A,,Overcast,360,2013-05-09 16:47:00
11:55 AM,59.0,55.4,88,29.97,8.0,North,5.8,-,N/A,,Overcast,10,2013-05-09 16:55:00
12:33 PM,60.8,55.4,82,29.97,7.0,NW,10.4,-,N/A,,Overcast,320,2013-05-09 17:33:00
12:55 PM,62.1,55.9,80,29.96,10.0,NNW,11.5,-,N/A,,Overcast,330,2013-05-09 17:55:00
1:55 PM,64.9,55.0,70,29.96,10.0,North,6.9,-,N/A,,Overcast,360,2013-05-09 18:55:00
2:15 PM,64.4,55.4,73,29.97,10.0,North,8.1,-,N/A,,Scattered Clouds,10,2013-05-09 19:15:00
2:55 PM,61.0,55.0,81,29.96,9.0,North,11.5,23.0,0.00,Rain,Light Rain,360,2013-05-09 19:55:00
3:06 PM,60.8,55.4,82,29.97,6.0,North,9.2,-,0.01,Rain,Light Rain,350,2013-05-09 20:06:00
3:55 PM,63.0,57.9,84,29.94,7.0,North,8.1,-,0.01,Rain,Light Rain,10,2013-05-09 20:55:00
4:55 PM,66.0,54.0,65,29.95,10.0,North,13.8,-,0.00,,Mostly Cloudy,350,2013-05-09 21:55:00
5:55 PM,66.0,53.1,63,29.95,10.0,North,9.2,-,N/A,,Overcast,10,2013-05-09 22:55:00
6:55 PM,62.1,54.0,75,29.96,10.0,NNW,17.3,24.2,0.00,,Scattered Clouds,340,2013-05-09 23:55:00
7:53 PM,60.8,53.6,77,29.99,10.0,NNW,11.5,21.9,N/A,,Mostly Cloudy,340,2013-05-10 00:53:00
7:55 PM,61.0,53.1,75,29.98,10.0,North,15.0,20.7,N/A,,Mostly Cloudy,350,2013-05-10 00:55:00
8:03 PM,60.8,51.8,72,30.00,10.0,NNW,15.0,20.7,N/A,,Mostly Cloudy,340,2013-05-10 01:03:00
8:12 PM,59.0,51.8,77,30.00,10.0,NNW,12.7,-,N/A,,Mostly Cloudy,340,2013-05-10 01:12:00
8:55 PM,57.0,52.0,83,30.00,10.0,NNW,9.2,-,N/A,,Mostly Cloudy,340,2013-05-10 01:55:00
9:25 PM,55.4,51.8,88,30.01,10.0,NNW,10.4,-,N/A,,Scattered Clouds,340,2013-05-10 02:25:00
9:55 PM,55.9,51.1,84,30.01,10.0,NNW,10.4,-,N/A,,Partly Cloudy,330,2013-05-10 02:55:00
10:16 PM,55.4,51.8,88,30.02,10.0,NNW,8.1,-,N/A,,Mostly Cloudy,330,2013-05-10 03:16:00
10:55 PM,57.0,53.1,87,30.01,10.0,NNW,8.1,-,N/A,,Overcast,330,2013-05-10 03:55:00
11:55 PM,55.9,53.1,90,30.01,9.0,NNW,8.1,-,N/A,,Overcast,340,2013-05-10 04:55:00